When you browse on this site, cookies collect data to enhance your experience and personalize the content and advertising you see.
Visit our Privacy Policy to learn more. By continuing to use the site, you agree to this use of cookies and data.
  • In Romania
  • List of Countries
  • For 7 days
  • Water Temperature
  • Satellite Maps
  • Weather Map
  • Weather Widgets
  • user-avatar
    Login

    Hourly Weather Neuquén

    Today, 22 March, Friday

    Time Temperature Precipitation Wind Pressure Humidity
    00:00 +18°C° 0 mm 7 mps 733 mmHg 45%
    01:00 +17°C° 0 mm 6 mps 733 mmHg 48%
    02:00 +17°C° 0 mm 6 mps 733 mmHg 50%
    03:00 +17°C° 0 mm 6 mps 733 mmHg 51%
    04:00 +16°C° 0 mm 6 mps 733 mmHg 52%
    05:00 +17°C° 0 mm 6 mps 734 mmHg 51%
    06:00 +17°C° 0 mm 6 mps 734 mmHg 50%
    07:00 +17°C° 0 mm 6 mps 734 mmHg 49%
    08:00 +20°C° 0 mm 5 mps 734 mmHg 43%
    09:00 +21°C° 0 mm 4 mps 735 mmHg 38%
    10:00 +24°C° 0 mm 3 mps 735 mmHg 32%
    11:00 +25°C° 0 mm 3 mps 734 mmHg 29%
    12:00 +26°C° 0 mm 3 mps 734 mmHg 27%
    13:00 +27°C° 0 mm 3 mps 733 mmHg 24%
    14:00 +27°C° 0 mm 4 mps 733 mmHg 23%
    15:00 +28°C° 0 mm 4 mps 732 mmHg 22%
    16:00 +28°C° 0 mm 4 mps 731 mmHg 21%
    17:00 +27°C° 0 mm 3 mps 731 mmHg 22%
    18:00 +26°C° 0 mm 3 mps 731 mmHg 24%
    19:00 +25°C° 0 mm 2 mps 731 mmHg 25%
    20:00 +24°C° 0 mm 2 mps 731 mmHg 26%
    21:00 +24°C° 0 mm 3 mps 731 mmHg 26%
    22:00 +22°C° 0 mm 3 mps 731 mmHg 27%
    23:00 +22°C° 0 mm 5 mps 731 mmHg 31%

    Tomorrow, 23 March, Saturday

    Time Temperature Precipitation Wind Pressure Humidity
    00:00 +22°C° 0 mm 6 mps 731 mmHg 35%
    01:00 +21°C° 0 mm 8 mps 731 mmHg 39%
    02:00 +21°C° 0 mm 8 mps 731 mmHg 41%
    03:00 +20°C° 0 mm 8 mps 731 mmHg 44%
    04:00 +20°C° 0 mm 7 mps 731 mmHg 46%
    05:00 +20°C° 0 mm 8 mps 732 mmHg 46%
    06:00 +19°C° 0 mm 9 mps 732 mmHg 45%
    07:00 +21°C° 0 mm 9 mps 732 mmHg 45%
    08:00 +22°C° 0 mm 10 mps 732 mmHg 39%
    09:00 +23°C° 0 mm 11 mps 732 mmHg 33%
    10:00 +26°C° 0 mm 12 mps 733 mmHg 26%
    11:00 +27°C° 0 mm 12 mps 733 mmHg 22%
    12:00 +27°C° 0 mm 12 mps 733 mmHg 17%
    13:00 +28°C° 0 mm 12 mps 733 mmHg 13%
    14:00 +28°C° 0 mm 11 mps 733 mmHg 13%
    15:00 +28°C° 0 mm 10 mps 733 mmHg 13%
    16:00 +27°C° 0 mm 9 mps 733 mmHg 13%
    17:00 +26°C° 0 mm 8 mps 734 mmHg 15%
    18:00 +24°C° 0 mm 7 mps 735 mmHg 17%
    19:00 +22°C° 0 mm 5 mps 735 mmHg 19%
    20:00 +21°C° 0 mm 5 mps 736 mmHg 22%
    21:00 +20°C° 0 mm 4 mps 737 mmHg 24%
    22:00 +20°C° 0 mm 4 mps 737 mmHg 27%
    23:00 +19°C° 0 mm 4 mps 737 mmHg 29%

    Day after tomorrow, 24 March, Sunday

    Time Temperature Precipitation Wind Pressure Humidity
    00:00 +19°C° 0 mm 3 mps 738 mmHg 31%
    01:00 +18°C° 0 mm 3 mps 738 mmHg 33%
    02:00 +17°C° 0 mm 3 mps 738 mmHg 36%
    03:00 +16°C° 0 mm 2 mps 738 mmHg 39%
    04:00 +15°C° 0 mm 1 mps 738 mmHg 42%
    05:00 +16°C° 0 mm 1 mps 738 mmHg 42%
    06:00 +16°C° 0 mm 1 mps 738 mmHg 43%
    07:00 +18°C° 0 mm 1 mps 739 mmHg 43%
    08:00 +18°C° 0 mm 2 mps 739 mmHg 40%
    09:00 +19°C° 0 mm 2 mps 739 mmHg 37%
    10:00 +20°C° 0 mm 3 mps 739 mmHg 34%
    11:00 +21°C° 0 mm 3 mps 739 mmHg 32%
    12:00 +23°C° 0 mm 2 mps 739 mmHg 29%
    13:00 +24°C° 0 mm 2 mps 738 mmHg 26%
    14:00 +24°C° 0 mm 3 mps 738 mmHg 25%
    15:00 +24°C° 0 mm 3 mps 737 mmHg 24%
    16:00 +25°C° 0 mm 4 mps 737 mmHg 23%
    17:00 +23°C° 0 mm 4 mps 737 mmHg 25%
    18:00 +22°C° 0 mm 5 mps 737 mmHg 26%
    19:00 +21°C° 0 mm 5 mps 738 mmHg 27%
    20:00 +20°C° 0 mm 6 mps 738 mmHg 33%
    21:00 +19°C° 0 mm 6 mps 738 mmHg 39%
    22:00 +17°C° 0 mm 7 mps 738 mmHg 45%
    23:00 +16°C° 0 mm 7 mps 738 mmHg 49%

    25 March, Monday

    Time Temperature Precipitation Wind Pressure Humidity
    00:00 +16°C° 0 mm 6 mps 738 mmHg 53%
    01:00 +15°C° 0 mm 6 mps 738 mmHg 57%
    02:00 +14°C° 0 mm 5 mps 738 mmHg 60%
    03:00 +14°C° 0 mm 5 mps 738 mmHg 62%
    04:00 +13°C° 0 mm 5 mps 738 mmHg 65%
    05:00 +13°C° 0 mm 5 mps 738 mmHg 65%
    06:00 +13°C° 0 mm 5 mps 739 mmHg 65%
    07:00 +13°C° 0 mm 6 mps 739 mmHg 65%
    08:00 +15°C° 0 mm 6 mps 739 mmHg 58%
    09:00 +16°C° 0 mm 6 mps 739 mmHg 51%
    10:00 +19°C° 0 mm 6 mps 739 mmHg 44%
    11:00 +20°C° 0 mm 6 mps 739 mmHg 39%
    12:00 +21°C° 0 mm 7 mps 739 mmHg 35%
    13:00 +22°C° 0 mm 7 mps 738 mmHg 30%
    14:00 +22°C° 0 mm 7 mps 738 mmHg 30%
    15:00 +22°C° 0 mm 8 mps 738 mmHg 29%
    16:00 +22°C° 0 mm 8 mps 738 mmHg 29%
    17:00 +21°C° 0 mm 8 mps 738 mmHg 31%
    18:00 +20°C° 0 mm 7 mps 739 mmHg 33%
    19:00 +18°C° 0 mm 7 mps 740 mmHg 35%
    20:00 +18°C° 0 mm 7 mps 740 mmHg 36%
    21:00 +17°C° 0 mm 7 mps 740 mmHg 37%
    22:00 +17°C° 0 mm 7 mps 741 mmHg 39%
    23:00 +16°C° 0 mm 6 mps 741 mmHg 43%

    26 March, Tuesday

    Time Temperature Precipitation Wind Pressure Humidity
    00:00 +16°C° 0 mm 6 mps 741 mmHg 47%
    01:00 +15°C° 0 mm 6 mps 741 mmHg 51%
    02:00 +14°C° 0 mm 6 mps 742 mmHg 55%
    03:00 +14°C° 0 mm 6 mps 742 mmHg 58%
    04:00 +13°C° 0 mm 6 mps 742 mmHg 62%
    05:00 +13°C° 0 mm 6 mps 742 mmHg 61%
    06:00 +12°C° 0 mm 7 mps 742 mmHg 61%
    07:00 +11°C° 0 mm 7 mps 743 mmHg 60%
    08:00 +14°C° 0 mm 7 mps 743 mmHg 53%
    09:00 +15°C° 0 mm 7 mps 743 mmHg 46%
    10:00 +17°C° 0 mm 7 mps 743 mmHg 39%
    11:00 +18°C° 0 mm 7 mps 743 mmHg 35%
    12:00 +20°C° 0 mm 7 mps 742 mmHg 32%
    13:00 +21°C° 0 mm 6 mps 742 mmHg 28%
    14:00 +21°C° 0 mm 6 mps 742 mmHg 28%
    15:00 +21°C° 0 mm 7 mps 741 mmHg 27%
    16:00 +21°C° 0 mm 7 mps 741 mmHg 26%
    17:00 +20°C° 0 mm 7 mps 741 mmHg 26%
    18:00 +20°C° 0 mm 7 mps 741 mmHg 27%
    19:00 +20°C° 0 mm 7 mps 741 mmHg 27%
    20:00 +20°C° 0 mm 7 mps 741 mmHg 28%
    21:00 +18°C° 0 mm 7 mps 741 mmHg 29%
    22:00 +18°C° 0 mm 7 mps 741 mmHg 31%
    23:00 +18°C° 0 mm 7 mps 740 mmHg 32%

    27 March, Wednesday

    Time Temperature Precipitation Wind Pressure Humidity
    00:00 +17°C° 0 mm 6 mps 740 mmHg 34%
    01:00 +16°C° 0 mm 6 mps 740 mmHg 36%
    02:00 +16°C° 0 mm 6 mps 739 mmHg 38%
    03:00 +16°C° 0 mm 6 mps 739 mmHg 40%
    04:00 +15°C° 0 mm 7 mps 738 mmHg 42%
    05:00 +15°C° 0 mm 7 mps 738 mmHg 44%
    06:00 +16°C° 0 mm 8 mps 738 mmHg 45%
    07:00 +16°C° 0 mm 9 mps 738 mmHg 47%
    08:00 +17°C° 0 mm 9 mps 738 mmHg 45%
    09:00 +19°C° 0 mm 10 mps 738 mmHg 43%
    10:00 +21°C° 0 mm 10 mps 737 mmHg 41%
    11:00 +23°C° 0 mm 10 mps 737 mmHg 40%
    12:00 +24°C° 0 mm 11 mps 736 mmHg 39%
    13:00 +26°C° 0 mm 11 mps 735 mmHg 39%
    14:00 +26°C° 0 mm 11 mps 735 mmHg 40%
    15:00 +24°C° 0 mm 11 mps 734 mmHg 42%
    16:00 +24°C° 0 mm 11 mps 734 mmHg 43%
    17:00 +23°C° 0.1 mm 10 mps 734 mmHg 46%
    18:00 +22°C° 0.1 mm 9 mps 734 mmHg 48%
    19:00 +21°C° 0.1 mm 8 mps 734 mmHg 51%
    20:00 +20°C° 0.2 mm 7 mps 734 mmHg 53%
    21:00 +20°C° 0.2 mm 7 mps 734 mmHg 56%
    22:00 +19°C° 0.2 mm 6 mps 735 mmHg 58%
    23:00 +19°C° 0 mm 6 mps 734 mmHg 61%
    Show more